This is the latest recevied weather packets stored in our database for station/object KW4UJ. If no packets are shown the sender has not sent any weather packets the latest 10 day(s).
| Time | Temp. | Humidity | Pressure | Rain* | Wind** | Luminosity | Snow |
|---|---|---|---|---|---|---|---|
| 1777402626 | 15.56° C | 67% | 1018.2 hPa | 0 mm | - | 225 W/m² | - |
| 1777402324 | 15.56° C | 68% | 1018.1 hPa | 0 mm | - | 197 W/m² | - |
| 1777402023 | 15.56° C | 67% | 1018.1 hPa | 0 mm | - | 208 W/m² | - |
| 1777401723 | 15.56° C | 66% | 1018.1 hPa | 0 mm | - | 259 W/m² | - |
| 1777401419 | 15.56° C | 68% | 1018 hPa | 0 mm | - | 321 W/m² | - |
| 1777401114 | 15.56° C | 67% | 1017.8 hPa | 0 mm | - | 282 W/m² | - |
| 1777400810 | 15.56° C | 69% | 1018 hPa | 0 mm | - | 286 W/m² | - |
| 1777400507 | 15.56° C | 67% | 1018.1 hPa | 0 mm | - | 258 W/m² | - |
| 1777400204 | 15° C | 68% | 1018.3 hPa | 0 mm | - | 310 W/m² | - |
| 1777399899 | 15° C | 69% | 1018.2 hPa | 0 mm | - | 293 W/m² | - |
| 1777399597 | 15° C | 70% | 1018.1 hPa | 0 mm | - | 279 W/m² | - |
| 1777399294 | 15° C | 71% | 1018.5 hPa | 0 mm | - | 257 W/m² | - |
| 1777398992 | 14.44° C | 72% | 1018.6 hPa | 0 mm | - | 275 W/m² | - |
| 1777398689 | 13.89° C | 72% | 1018.6 hPa | 0 mm | - | 249 W/m² | - |
| 1777398386 | 13.89° C | 73% | 1018.8 hPa | 0 mm | - | 178 W/m² | - |
| 1777398082 | 13.89° C | 72% | 1018.8 hPa | 0 mm | - | 191 W/m² | - |
| 1777397780 | 13.89° C | 72% | 1018.9 hPa | 0 mm | - | 202 W/m² | - |
| 1777397480 | 13.89° C | 73% | 1018.7 hPa | 0 mm | - | 247 W/m² | - |
| 1777397176 | 13.89° C | 73% | 1018.9 hPa | 0 mm | - | 201 W/m² | - |
| 1777396874 | 13.89° C | 73% | 1018.9 hPa | 0 mm | - | 232 W/m² | - |
| 1777396569 | 13.89° C | 74% | 1018.8 hPa | 0 mm | - | 262 W/m² | - |
| 1777396267 | 13.33° C | 73% | 1018.8 hPa | 0 mm | - | 356 W/m² | - |
| 1777395963 | 12.78° C | 74% | 1019 hPa | 0 mm | - | 259 W/m² | - |
| 1777395658 | 12.78° C | 75% | 1019.3 hPa | 0 mm | - | 192 W/m² | - |
| 1777395354 | 12.78° C | 75% | 1019.3 hPa | 0 mm | - | 96 W/m² | - |
* Rain latest hour (hover to see other rain measurements)
** Current wind speed in m/s (hover to see current wind gust speed)